Location: Belfast
(54.5830°N, 5.9330°W)
Time: 05:52:27
(UTC+01:00)

ISS - Pass Details

Date: 15 March 2018
Orbit: 403 x 408 km, 51.6° (Epoch: 21 September)

Event Time Altitude Azimuth Distance (km) Brightness Sun altitude
Exits shadow 04:57:41 30° 217° (SW) 774 -2.9 -15.3°
Maximum altitude 04:58:06 31° 201° (SSW) 753 -2.8 -15.3°
Drops below altitude 10° 05:01:05 10° 137° (SE) 1,484 -0.7 -14.8°
Sets 05:03:22 0° 127° (SE) 2,367 0.6 -14.5°
